Vorticity
3 4 5 6 6 7 7 8 8 9 8 8 8 8 9 9 9 9 9 10 11 11 11 11 10 10 9 8 8 8 9 8 8 8 8 8 6 6 7 6 8 9 9 6 6 8 9 8 7 7 7 8 8 7 8 7 6 8 8 9 10 9 8 10 10 8 8 8 8 7 7 11 14 15 10 9 7 3 6 5 3 4 3 -0 -3 -0 0 1
6 4 5 5 5 5 6 6 7 7 8 8 8 8 9 9 9 9 9 9 9 9 9 10 10 10 9 9 8 7 8 8 8 7 8 8 7 7 6 6 7 8 8 7 6 7 9 8 7 8 8 8 9 8 9 7 6 6 6 9 10 6 7 10 8 4 6 7 6 6 7 9 12 11 12 15 8 5 8 5 2 2 3 4 2 1 -1 -0
12 7 5 5 5 4 4 5 6 6 7 8 8 9 9 9 9 9 9 8 8 8 9 9 9 9 8 8 7 7 7 7 7 6 7 8 7 8 7 7 8 7 8 8 7 8 8 8 7 8 8 9 9 8 9 8 7 5 6 11 8 4 7 9 5 1 5 8 4 4 6 8 8 7 11 15 10 11 10 2 3 3 0 3 4 3 5 9
13 12 8 5 5 5 5 5 5 5 6 7 7 8 8 8 8 8 7 7 7 8 9 9 9 8 8 8 7 7 7 6 7 6 7 7 7 8 8 8 9 8 9 9 8 8 8 8 7 8 8 8 8 8 9 9 8 6 9 12 5 4 6 5 3 4 11 15 8 4 7 10 10 9 9 8 9 13 11 3 3 3 4 8 9 13 17 19
10 12 12 9 6 6 6 5 5 5 5 5 6 6 6 7 7 7 6 6 6 7 8 9 9 8 7 7 7 7 8 7 6 6 7 7 7 7 8 8 9 9 9 9 9 9 9 9 8 9 8 8 8 8 8 8 7 6 9 9 5 7 7 5 8 9 11 14 12 6 5 11 14 14 10 9 7 3 6 10 10 10 14 16 16 20 20 21
11 10 12 12 9 7 7 7 6 6 6 6 5 5 5 6 6 6 5 5 5 5 5 7 8 8 7 7 7 7 8 9 8 7 7 8 8 8 9 8 9 9 9 9 9 9 9 9 9 9 8 8 8 8 9 7 7 7 7 6 6 8 8 7 7 6 6 7 11 8 5 10 13 14 14 15 11 3 7 15 15 14 15 15 16 18 18 19
14 12 11 11 11 9 7 8 8 8 8 8 7 6 5 5 5 5 6 6 6 6 4 4 5 6 8 7 7 7 8 10 8 8 8 8 9 9 10 10 10 10 10 10 9 9 9 9 9 8 8 7 7 8 7 6 7 8 6 5 5 6 8 6 4 3 4 5 5 7 10 11 11 14 14 14 18 15 9 8 11 12 13 15 16 15 12 11
13 15 13 10 10 11 9 8 8 9 9 9 9 8 8 7 6 6 7 9 9 10 7 6 5 4 6 7 7 7 8 9 8 9 9 9 9 9 9 10 11 11 11 11 9 9 9 9 8 8 7 5 7 6 5 5 7 8 6 4 4 5 4 1 2 3 6 8 5 8 12 11 12 13 10 10 17 14 4 7 15 16 15 17 15 11 8 6
9 13 16 13 10 10 10 9 8 8 9 10 10 9 8 8 9 9 10 11 11 11 11 11 9 7 6 6 6 7 8 8 7 8 8 9 9 9 9 9 11 11 12 12 12 12 10 10 8 8 7 5 7 6 3 5 7 8 5 3 2 3 2 -0 4 6 5 7 5 8 11 9 11 11 9 10 12 7 5 13 20 17 13 12 9 7 8 6
12 10 14 16 13 10 9 9 8 8 8 8 10 9 8 8 9 10 11 11 11 11 11 11 11 10 8 7 7 7 9 8 7 8 8 8 8 9 9 10 11 11 11 12 12 12 11 10 8 8 7 6 8 5 3 7 8 8 5 3 3 4 4 2 4 4 4 6 5 8 9 7 10 12 11 8 6 5 5 12 15 12 10 7 6 5 7 5
18 13 11 15 16 13 10 10 9 8 8 7 8 9 9 10 10 11 11 11 10 11 10 10 10 10 9 8 8 8 9 9 8 8 8 8 9 10 10 10 11 12 12 12 11 11 11 10 9 9 8 7 8 4 4 8 8 9 6 5 5 5 5 3 4 3 4 7 6 5 6 5 8 14 14 9 6 4 3 9 10 7 7 6 6 3 3 3
16 18 15 14 16 16 13 11 11 9 8 7 8 8 9 11 12 12 12 11 10 10 10 10 9 9 9 9 9 8 9 8 7 7 8 9 10 11 11 11 12 13 13 12 11 10 11 11 12 11 8 8 9 5 5 7 9 9 7 7 7 6 6 5 3 2 3 5 4 4 5 3 4 9 10 7 5 2 2 7 8 6 5 4 5 3 3 5
8 14 17 16 15 16 14 12 10 9 9 8 8 8 9 10 11 11 11 11 10 10 10 9 10 10 9 9 8 8 8 7 8 8 8 9 11 12 13 14 12 12 12 11 11 11 11 11 13 13 11 12 10 5 4 6 9 9 7 8 7 7 8 6 4 2 3 3 3 4 4 3 5 6 4 3 3 2 4 7 7 6 4 5 5 5 6 4
8 9 13 16 16 17 17 15 12 11 10 9 8 8 8 9 9 10 10 10 10 9 10 9 10 9 8 7 8 9 8 8 10 10 11 12 14 15 14 14 12 10 10 11 12 12 12 11 13 14 13 13 10 7 5 4 6 7 7 8 6 6 8 7 6 4 4 4 4 4 5 5 6 6 4 2 2 5 9 8 6 4 4 5 6 6 6 3
12 10 10 12 14 15 16 17 15 12 10 9 9 8 9 9 9 9 9 9 9 9 10 10 10 8 7 9 10 9 8 10 11 10 13 14 15 14 14 14 12 11 11 12 11 11 12 11 12 13 14 15 12 10 8 5 6 6 7 9 8 7 8 9 8 7 6 5 4 3 3 6 9 8 4 3 5 10 13 8 5 5 4 5 5 6 7 6
13 13 11 10 12 14 15 14 13 12 10 8 9 9 9 8 8 8 8 9 9 9 10 9 8 8 10 11 10 10 9 10 10 10 13 15 14 12 12 13 11 11 11 12 11 11 13 12 10 10 11 13 12 12 10 8 8 7 7 8 8 8 10 10 8 7 6 5 5 5 4 6 12 12 5 5 8 9 9 7 6 6 5 5 6 6 7 8
10 12 13 11 11 12 14 15 14 12 10 9 8 8 8 9 9 8 8 8 8 9 9 9 9 9 10 10 9 10 10 10 9 9 11 14 13 11 12 12 12 12 12 12 12 13 15 13 10 9 8 8 9 9 8 9 9 9 9 8 7 7 8 9 7 6 6 5 5 5 5 8 14 11 5 6 7 6 8 8 6 8 8 7 7 4 4 6
9 10 11 12 11 11 12 13 14 13 11 10 9 9 9 9 9 8 8 7 7 8 8 8 9 11 11 10 10 10 10 10 10 8 8 10 11 11 11 12 12 12 12 13 13 12 13 12 10 9 8 7 7 7 8 10 10 10 9 7 8 7 7 8 7 6 5 6 6 5 12 19 18 10 5 8 7 5 6 4 4 8 8 8 7 4 4 4
7 9 9 10 10 11 11 11 12 12 12 11 10 10 9 9 9 10 9 8 8 8 8 9 11 12 11 9 9 11 13 11 9 8 5 6 9 10 11 12 11 11 11 12 11 12 12 13 14 13 13 12 10 10 8 7 7 7 7 7 8 7 10 9 6 5 5 10 13 15 21 22 17 13 11 10 9 8 6 5 5 4 7 10 9 6 6 4
4 6 8 9 9 9 10 10 11 11 11 11 11 10 10 10 11 11 11 10 9 8 9 10 11 12 11 9 7 7 10 10 9 8 6 6 7 7 10 11 11 10 10 10 10 12 12 13 16 17 17 15 12 12 9 7 7 7 8 8 9 9 11 10 8 9 12 18 20 21 22 14 10 14 11 8 10 11 8 8 8 6 11 15 12 10 9 7
3 3 5 8 9 9 9 9 10 10 10 11 11 11 11 11 11 12 12 11 10 9 9 10 10 12 13 12 10 7 7 9 9 8 7 6 5 6 8 10 11 10 9 9 9 11 10 10 14 15 13 12 12 11 9 9 7 8 9 9 11 13 13 11 9 12 17 22 21 18 18 11 10 13 9 8 12 13 13 16 18 16 14 11 10 10 10 10
4 3 3 4 7 9 10 9 9 9 10 9 9 10 11 11 12 12 12 12 13 11 11 12 11 11 10 10 10 9 7 6 6 7 7 7 6 7 8 8 7 8 9 9 9 10 8 7 10 10 10 11 12 11 9 8 8 10 10 11 12 13 15 11 8 14 17 18 15 11 10 9 12 14 10 12 14 17 20 18 18 18 10 6 9 9 10 11
5 5 4 3 4 5 8 10 10 9 9 9 9 8 8 10 12 13 12 11 14 14 13 13 12 12 11 10 10 8 7 6 6 7 8 8 6 6 7 8 7 7 9 9 8 8 5 5 8 8 8 10 12 12 12 11 11 12 11 12 12 13 15 9 8 15 12 10 12 7 5 5 8 11 11 14 16 17 15 8 5 4 1 3 6 3 5 6
7 6 6 5 4 3 4 8 11 11 9 8 10 10 8 8 9 11 12 10 11 15 15 13 12 14 13 10 10 8 6 7 7 7 8 8 7 7 7 7 9 10 9 8 8 8 5 5 7 8 7 7 9 10 11 12 13 13 13 15 14 13 13 8 11 13 6 10 13 7 7 6 4 8 13 16 11 6 7 7 7 5 4 4 1 -0 2 1
9 8 6 6 7 6 4 4 8 12 11 8 9 11 11 9 8 8 10 11 11 13 16 15 10 10 10 10 12 8 5 7 8 8 8 8 8 8 6 6 9 10 9 8 8 8 8 7 7 8 8 6 5 5 7 9 11 11 15 17 15 14 10 8 12 8 2 7 8 4 6 8 6 7 10 8 1 -1 3 6 10 11 9 8 4 3 4 2
9 9 8 7 7 8 8 5 4 8 11 10 8 9 11 11 10 9 9 10 11 9 11 15 13 11 9 10 12 9 5 6 7 8 9 10 10 8 7 7 8 9 8 7 7 6 8 8 7 7 7 7 7 6 6 8 10 11 13 15 14 11 8 8 11 7 -1 -1 2 4 2 3 9 10 5 -0 -4 -2 -0 -0 6 7 3 3 3 0 2 2
12 10 9 8 7 7 8 8 5 4 7 10 9 8 10 12 12 12 10 8 10 10 8 9 12 15 11 6 8 9 8 6 6 9 9 9 10 9 8 8 8 9 8 7 8 8 7 7 7 7 7 9 10 9 7 7 11 10 9 12 11 8 8 7 8 9 3 1 5 7 4 1 5 6 4 2 0 0 0 -0 2 4 1 1 1 -0 4 5
16 15 11 8 8 8 8 9 9 6 5 8 9 7 8 10 11 12 12 10 11 14 14 10 7 10 10 10 10 7 7 6 4 5 5 5 7 7 7 7 8 9 8 9 9 7 6 6 6 6 8 10 11 8 5 6 11 10 6 9 9 7 7 5 8 9 7 9 9 5 5 3 -1 -1 1 4 7 6 4 3 2 2 1 1 2 4 6 6
12 16 16 11 7 7 8 9 10 9 6 5 7 8 7 8 9 10 10 10 11 12 14 15 13 9 6 8 12 9 7 8 7 5 5 4 6 6 7 7 7 7 7 9 7 5 5 5 5 6 7 10 10 7 6 8 11 11 9 8 9 9 7 4 8 9 8 10 8 3 4 3 -1 -1 1 3 5 5 2 3 4 1 -1 -0 2 5 6 6
8 11 16 17 11 7 6 7 9 9 9 7 5 6 8 7 7 8 8 10 11 10 9 12 14 15 11 6 9 11 7 6 6 6 6 5 6 6 5 5 6 6 5 6 6 5 5 5 6 8 7 8 8 8 8 9 9 10 11 10 7 9 8 6 5 5 9 9 6 5 3 2 1 0 3 3 1 0 0 2 4 2 3 4 5 7 5 2
9 8 11 15 17 13 6 4 7 7 8 10 8 5 7 9 7 7 8 10 10 9 8 8 7 12 15 9 6 7 7 5 4 5 6 6 6 6 6 7 6 6 5 8 9 6 4 7 8 8 6 5 6 7 7 7 9 8 10 12 10 8 10 10 5 3 8 9 8 7 2 0 2 1 2 2 0 1 -1 -2 2 4 4 4 6 10 6 1
12 11 10 10 15 18 11 4 5 5 5 9 10 7 5 7 9 8 7 8 9 7 8 9 6 6 8 7 6 6 6 7 8 9 10 10 9 11 14 13 11 11 10 12 14 10 7 8 7 6 5 5 5 6 5 4 7 8 9 12 11 9 11 12 9 4 5 6 6 7 3 1 0 -1 2 3 2 1 -6 -4 5 8 7 5 4 6 5 4
12 12 13 11 11 16 16 9 5 4 4 5 9 9 6 5 8 10 9 8 7 6 6 8 9 8 5 6 8 7 6 6 7 8 9 11 11 13 14 11 11 12 10 10 11 11 11 10 7 7 6 5 6 7 7 6 7 11 16 17 13 10 12 15 12 5 2 4 6 5 4 2 -2 -2 4 5 4 -0 -7 -1 5 3 6 11 11 9 7 7
12 13 14 14 12 11 13 14 10 5 3 3 6 7 8 7 6 8 11 9 5 4 4 4 6 8 7 8 8 8 10 9 7 7 6 7 8 9 11 11 10 10 8 7 7 9 13 12 9 10 10 9 9 9 9 10 11 15 17 17 15 13 13 16 18 13 4 1 3 4 3 1 -2 -2 1 2 2 0 -3 -1 -1 -4 1 6 8 10 9 10
11 13 13 14 15 12 10 13 15 11 5 2 4 6 7 9 10 8 8 9 7 7 6 4 4 6 7 8 9 9 11 12 11 11 8 7 7 6 7 10 11 9 8 9 9 10 14 13 10 9 10 9 10 12 12 8 9 12 13 11 12 15 16 15 17 19 13 5 3 4 2 0 1 1 2 2 1 1 1 1 -0 1 7 8 8 10 7 9
11 11 12 14 18 16 11 9 14 16 12 5 3 5 5 7 11 9 7 8 9 9 10 9 8 9 9 8 8 9 11 11 11 11 10 11 11 7 5 6 6 7 9 9 9 11 15 17 13 9 9 9 7 11 12 7 6 11 13 12 12 14 16 14 13 16 16 13 11 8 5 2 3 3 3 4 3 3 3 -0 -0 6 14 18 21 19 12 13
14 13 13 14 16 17 14 9 9 14 17 12 5 4 5 5 7 8 6 6 8 7 8 11 12 11 11 9 7 7 10 10 9 9 10 11 12 9 8 8 6 6 9 10 9 9 12 15 12 7 8 11 11 9 7 5 6 10 11 10 11 13 13 10 9 12 12 12 14 13 11 8 6 5 4 3 2 2 1 3 12 19 18 16 17 16 12 13
15 17 18 15 13 15 16 13 9 9 14 16 11 7 7 7 6 7 7 6 6 6 6 8 10 10 10 9 7 6 8 9 8 7 9 8 9 12 12 9 7 7 7 9 9 9 11 13 10 5 4 8 11 10 9 8 7 7 7 5 6 10 12 9 6 9 10 10 12 11 12 12 9 8 8 7 6 7 10 16 21 20 17 16 12 9 9 6
16 17 20 21 17 14 14 14 12 8 9 14 15 12 11 11 9 7 8 8 7 6 6 6 7 7 7 6 6 6 6 7 6 5 8 9 8 12 16 12 7 7 8 10 12 14 16 15 10 10 9 7 8 5 5 8 8 6 5 4 4 5 8 9 7 6 6 7 11 12 12 13 12 11 13 15 18 20 23 25 22 16 16 21 18 11 11 8
20 21 22 25 24 18 12 13 15 11 8 10 13 13 11 11 12 10 8 7 6 7 6 6 6 7 7 6 5 5 5 6 8 8 8 11 9 9 15 18 12 7 6 9 11 11 14 13 8 9 11 11 12 7 3 7 10 9 7 4 5 7 8 9 8 7 5 4 6 8 8 10 12 15 18 23 28 29 29 27 24 19 14 13 12 10 12 12
22 25 26 26 29 25 15 11 14 15 11 9 10 12 10 8 9 9 9 8 6 7 6 5 6 6 6 6 5 5 5 5 9 12 11 14 14 8 9 15 15 10 6 8 10 8 9 11 7 7 8 10 14 11 5 6 8 10 12 9 7 8 11 14 12 9 8 7 7 9 10 12 15 14 14 18 24 25 22 19 17 15 12 12 14 16 18 20
25 28 28 27 30 31 22 12 12 16 15 12 11 11 10 8 8 8 8 8 8 8 7 6 6 7 6 6 6 6 6 5 6 11 12 11 10 5 -0 4 11 13 8 7 9 8 8 10 6 5 5 5 10 12 7 7 6 5 8 11 11 10 11 13 13 12 12 10 9 11 11 12 11 7 5 8 14 17 18 15 11 9 8 9 10 12 14 13
31 29 26 23 26 32 28 15 10 14 15 13 13 12 10 9 9 9 9 8 7 8 10 9 6 6 6 5 6 6 5 6 5 6 9 6 4 2 -2 -0 6 11 11 8 6 5 7 7 3 4 7 2 4 11 10 8 9 7 7 8 7 9 10 9 7 8 9 8 7 9 9 7 4 2 4 4 4 9 15 14 12 11 10 10 8 7 8 5
29 25 20 20 24 31 32 22 11 13 17 15 12 12 12 13 12 11 12 11 8 7 10 12 8 7 7 6 6 5 4 5 4 4 7 6 4 4 4 7 9 8 7 5 2 1 5 5 -1 0 6 3 -0 4 9 10 8 9 15 15 7 3 6 7 5 3 3 2 2 4 5 4 3 5 7 4 2 6 9 9 9 10 9 10 9 7 7 7
21 21 17 20 24 26 32 28 14 10 15 17 17 14 12 13 14 13 14 13 12 10 11 15 12 9 8 6 5 6 4 4 4 4 6 8 8 7 5 8 12 11 8 5 6 7 7 6 4 3 3 3 1 -0 6 12 8 5 12 16 9 3 3 4 4 4 4 3 1 2 6 7 8 8 5 3 4 5 4 7 11 11 9 10 10 10 8 6
13 15 16 29 30 19 26 30 15 10 14 13 15 16 13 13 14 13 14 13 11 12 14 16 15 10 8 7 7 7 6 5 5 4 4 5 7 8 7 6 9 13 12 9 8 9 7 4 4 5 4 5 5 2 2 7 8 7 8 8 5 3 3 3 4 4 4 3 3 5 8 9 9 9 7 6 7 6 3 6 10 11 11 9 4 2 3 4
8 12 23 43 35 11 21 37 20 8 15 16 14 14 12 13 14 12 13 12 10 11 14 18 17 12 8 8 7 6 5 5 6 6 5 5 6 9 8 7 9 11 16 23 19 10 7 7 6 6 5 5 6 3 -1 -1 1 4 6 7 7 5 3 3 3 3 2 1 2 5 6 6 6 7 8 8 6 5 4 5 7 6 4 1 -4 -5 0 5
7 14 31 48 33 -2 -0 30 33 15 10 11 13 16 15 12 13 15 14 12 10 8 11 17 19 14 10 9 7 5 4 4 3 4 4 4 6 10 8 6 8 6 10 28 34 19 6 5 7 8 9 12 14 9 2 -1 0 2 2 2 5 7 8 6 3 2 3 3 3 5 2 1 4 6 7 6 2 1 3 6 5 3 1 1 0 1 2 3
6 15 33 45 39 5 -22 -5 28 36 30 22 11 10 16 13 11 15 15 13 11 9 10 14 18 16 12 9 9 8 5 4 5 6 6 3 2 6 5 3 5 4 3 14 26 24 15 8 6 6 9 17 24 18 5 -1 -0 3 4 3 2 2 7 14 13 6 3 5 6 5 3 1 2 4 3 2 -1 -1 4 6 3 2 3 4 5 4 4 4
9 11 29 41 42 28 -3 -20 -12 3 26 45 34 15 15 16 11 13 16 15 13 9 10 14 16 17 14 10 11 10 7 5 5 7 9 8 5 3 3 3 3 2 2 3 7 12 14 14 14 12 11 17 26 28 19 6 0 -1 0 2 2 -2 -2 8 19 17 10 10 9 3 -0 1 1 2 3 2 1 2 5 5 3 3 3 4 5 4 3 3
17 8 21 36 38 35 25 5 -18 -32 -14 24 40 32 28 25 18 15 16 18 16 11 12 15 16 15 13 10 9 9 9 8 6 4 5 6 5 2 2 7 10 8 8 5 3 2 -1 0 5 7 8 10 16 28 30 19 14 13 8 5 6 4 -2 -1 11 20 14 10 11 8 4 4 3 1 2 3 4 5 6 6 5 5 5 4 4 3 3 3
24 14 13 29 37 35 29 19 7 -8 -18 -11 8 23 32 33 26 18 14 14 14 10 10 15 19 19 16 12 8 6 8 8 6 5 5 6 8 7 3 4 7 8 9 7 7 7 3 2 4 4 6 6 5 11 14 10 12 17 18 18 17 16 12 6 11 19 13 3 3 4 5 5 4 4 5 5 6 7 7 7 7 6 6 5 4 4 3 3
Height
5736 5736 5736 5737 5737 5737 5738 5738 5738 5739 5739 5739 5740 5740 5741 5741 5741 5742 5742 5743 5743 5744 5745 5746 5747 5748 5749 5750 5751 5752 5753 5754 5755 5755 5756 5757 5758 5759 5760 5762 5762 5763 5763 5764 5766 5767 5769 5770 5771 5772 5773 5774 5776 5777 5778 5780 5781 5782 5783 5785 5785 5786 5787 5788 5788 5788 5787 5788 5789 5790 5792 5794 5795 5795 5796 5797 5798 5799 5799 5800 5800 5801 5801 5801 5802 5802 5803 5803
5733 5733 5734 5734 5734 5735 5735 5736 5736 5737 5737 5737 5738 5738 5739 5739 5739 5740 5740 5741 5741 5742 5743 5743 5744 5745 5746 5747 5748 5749 5750 5751 5752 5753 5753 5755 5756 5757 5758 5759 5759 5760 5761 5762 5763 5765 5766 5767 5769 5770 5771 5772 5774 5775 5776 5778 5779 5780 5782 5783 5783 5784 5785 5785 5785 5785 5785 5786 5787 5788 5790 5791 5793 5794 5796 5797 5797 5797 5797 5798 5798 5798 5799 5800 5800 5801 5801 5802
5730 5730 5731 5731 5732 5732 5733 5733 5734 5734 5735 5735 5735 5736 5736 5737 5737 5737 5738 5738 5739 5740 5740 5741 5742 5743 5743 5744 5745 5746 5747 5748 5749 5750 5751 5752 5753 5754 5755 5756 5757 5758 5759 5759 5761 5763 5764 5765 5766 5768 5769 5770 5772 5773 5774 5775 5777 5778 5780 5781 5781 5782 5782 5782 5783 5783 5784 5784 5785 5786 5788 5790 5791 5793 5795 5796 5795 5795 5795 5795 5796 5797 5798 5798 5799 5800 5800 5800
5727 5727 5728 5728 5729 5730 5730 5731 5731 5732 5732 5733 5733 5733 5734 5734 5735 5735 5736 5736 5737 5737 5738 5739 5740 5740 5741 5742 5743 5744 5745 5745 5746 5747 5748 5749 5750 5751 5753 5753 5754 5755 5756 5757 5759 5760 5762 5763 5764 5766 5767 5768 5769 5771 5772 5773 5775 5776 5778 5779 5779 5780 5780 5780 5781 5782 5783 5783 5783 5785 5787 5788 5790 5792 5793 5794 5794 5794 5794 5794 5795 5796 5797 5797 5798 5798 5798 5797
5724 5724 5725 5725 5726 5727 5727 5728 5728 5729 5729 5730 5730 5731 5731 5732 5732 5733 5733 5734 5734 5735 5736 5736 5737 5738 5739 5739 5740 5741 5742 5742 5744 5744 5745 5746 5747 5749 5750 5751 5752 5753 5754 5755 5756 5757 5759 5760 5761 5763 5764 5765 5767 5768 5769 5771 5772 5774 5776 5777 5777 5778 5778 5778 5780 5781 5782 5782 5783 5784 5785 5787 5789 5789 5790 5791 5792 5792 5793 5794 5795 5796 5796 5796 5796 5795 5795 5796
5721 5721 5722 5722 5723 5724 5724 5725 5725 5726 5726 5727 5728 5728 5729 5729 5729 5730 5730 5731 5732 5732 5733 5734 5734 5735 5736 5737 5738 5738 5739 5739 5741 5742 5742 5743 5744 5746 5747 5748 5749 5750 5751 5752 5753 5754 5756 5757 5759 5760 5762 5763 5764 5765 5767 5768 5769 5771 5774 5775 5775 5776 5776 5776 5777 5778 5779 5781 5782 5783 5784 5786 5787 5787 5788 5789 5790 5792 5793 5794 5794 5794 5794 5794 5793 5793 5794 5794
5719 5719 5719 5719 5720 5721 5721 5722 5722 5723 5723 5724 5725 5725 5726 5726 5727 5727 5728 5728 5729 5730 5730 5731 5732 5732 5733 5734 5735 5736 5736 5736 5737 5739 5740 5741 5742 5743 5744 5745 5746 5747 5748 5749 5750 5751 5753 5755 5756 5757 5759 5760 5761 5762 5764 5764 5766 5769 5772 5773 5773 5774 5774 5774 5774 5776 5777 5779 5780 5781 5783 5784 5785 5785 5786 5787 5788 5791 5792 5792 5792 5792 5792 5792 5792 5792 5793 5792
5716 5716 5716 5717 5717 5718 5718 5719 5719 5720 5720 5721 5722 5722 5723 5723 5724 5724 5725 5725 5726 5727 5727 5728 5729 5730 5731 5732 5732 5733 5733 5733 5735 5736 5737 5738 5739 5740 5741 5741 5743 5743 5745 5746 5747 5748 5750 5752 5753 5754 5756 5756 5757 5759 5760 5761 5763 5767 5769 5770 5770 5771 5772 5772 5773 5774 5776 5777 5778 5780 5781 5782 5783 5783 5784 5786 5788 5790 5790 5789 5790 5791 5791 5790 5790 5791 5790 5790
5714 5713 5714 5714 5714 5715 5715 5716 5716 5717 5717 5718 5718 5719 5720 5720 5721 5721 5722 5722 5723 5724 5724 5725 5726 5727 5728 5729 5729 5730 5730 5731 5732 5733 5734 5735 5735 5736 5737 5738 5739 5740 5741 5743 5744 5746 5747 5748 5750 5751 5751 5752 5754 5756 5757 5758 5761 5764 5766 5767 5767 5768 5770 5770 5771 5773 5774 5776 5777 5778 5780 5780 5781 5781 5783 5784 5786 5787 5787 5788 5789 5789 5789 5789 5789 5789 5789 5788
5711 5711 5711 5711 5711 5712 5712 5713 5713 5714 5714 5715 5716 5716 5717 5717 5718 5718 5719 5720 5720 5721 5722 5723 5723 5724 5725 5726 5726 5727 5727 5728 5729 5730 5731 5732 5732 5733 5734 5735 5736 5737 5738 5739 5741 5742 5743 5744 5745 5746 5748 5749 5751 5753 5754 5756 5759 5762 5763 5764 5765 5767 5768 5769 5770 5771 5772 5774 5775 5777 5778 5778 5779 5780 5782 5783 5783 5784 5785 5786 5787 5787 5787 5787 5787 5787 5787 5787
5709 5708 5708 5708 5708 5709 5709 5710 5710 5711 5712 5712 5713 5713 5714 5714 5715 5715 5716 5717 5717 5718 5719 5720 5721 5722 5722 5723 5723 5724 5725 5725 5726 5727 5728 5729 5729 5730 5731 5732 5733 5734 5735 5736 5737 5738 5739 5740 5742 5744 5745 5747 5749 5750 5752 5754 5756 5759 5760 5762 5763 5765 5766 5767 5768 5769 5770 5771 5773 5774 5775 5775 5777 5779 5780 5780 5781 5782 5783 5784 5785 5786 5786 5786 5786 5786 5786 5786
5707 5706 5706 5706 5706 5706 5706 5707 5707 5708 5709 5709 5710 5711 5711 5711 5712 5713 5713 5714 5715 5716 5716 5717 5718 5719 5720 5720 5721 5722 5722 5723 5724 5725 5725 5726 5726 5727 5728 5728 5729 5730 5731 5732 5733 5734 5736 5737 5739 5741 5742 5744 5747 5748 5750 5752 5754 5756 5758 5759 5761 5763 5764 5766 5766 5767 5767 5769 5771 5772 5773 5773 5775 5777 5778 5778 5779 5780 5781 5782 5783 5784 5784 5784 5784 5784 5784 5785
5705 5704 5703 5703 5703 5703 5703 5704 5704 5705 5706 5707 5707 5708 5708 5709 5709 5710 5711 5711 5712 5713 5714 5715 5716 5717 5717 5717 5718 5719 5719 5720 5721 5722 5722 5723 5723 5724 5725 5725 5726 5727 5728 5729 5730 5732 5733 5735 5737 5739 5741 5743 5744 5746 5748 5750 5752 5754 5756 5757 5759 5761 5762 5763 5764 5765 5765 5767 5768 5770 5770 5771 5773 5775 5775 5775 5777 5778 5779 5780 5781 5782 5782 5783 5783 5783 5783 5783
5703 5702 5701 5701 5701 5701 5701 5701 5702 5702 5703 5704 5705 5705 5706 5706 5707 5707 5708 5709 5710 5710 5711 5712 5713 5714 5714 5715 5716 5716 5716 5718 5719 5719 5720 5720 5721 5721 5722 5722 5723 5724 5725 5726 5728 5730 5731 5733 5735 5737 5739 5740 5742 5744 5746 5747 5750 5751 5753 5755 5757 5758 5760 5761 5761 5762 5763 5764 5765 5767 5767 5768 5771 5772 5772 5772 5774 5776 5777 5778 5779 5779 5780 5781 5781 5781 5782 5782
5701 5700 5700 5699 5699 5698 5698 5699 5699 5700 5701 5701 5702 5703 5703 5704 5704 5705 5705 5706 5707 5708 5709 5710 5710 5711 5712 5712 5713 5713 5714 5716 5716 5717 5717 5718 5718 5719 5719 5720 5720 5721 5722 5724 5725 5727 5728 5731 5733 5734 5736 5738 5740 5742 5743 5745 5748 5749 5751 5753 5754 5756 5757 5758 5758 5759 5760 5761 5762 5763 5764 5766 5769 5770 5769 5769 5771 5774 5775 5776 5777 5777 5778 5779 5779 5780 5780 5780
5699 5698 5698 5697 5697 5696 5696 5697 5697 5698 5698 5699 5699 5700 5701 5701 5701 5702 5703 5704 5704 5705 5706 5707 5707 5708 5709 5710 5710 5710 5712 5714 5714 5714 5715 5715 5716 5716 5717 5718 5718 5719 5720 5722 5723 5724 5726 5728 5730 5731 5733 5735 5737 5739 5741 5743 5745 5746 5748 5749 5751 5752 5753 5754 5755 5756 5757 5758 5759 5760 5761 5763 5766 5767 5766 5767 5769 5772 5773 5774 5774 5775 5776 5777 5778 5778 5779 5779
5697 5696 5696 5695 5695 5695 5694 5695 5695 5695 5696 5696 5697 5697 5698 5698 5699 5700 5700 5701 5702 5703 5703 5704 5705 5706 5706 5707 5708 5708 5710 5711 5712 5712 5713 5713 5714 5714 5715 5716 5716 5717 5718 5720 5721 5723 5724 5726 5727 5729 5731 5732 5734 5736 5738 5740 5742 5744 5745 5746 5747 5749 5750 5751 5752 5753 5754 5755 5756 5757 5758 5760 5763 5764 5763 5764 5767 5769 5770 5771 5772 5773 5774 5775 5776 5777 5777 5777
5695 5695 5694 5694 5693 5693 5693 5693 5693 5693 5693 5694 5694 5695 5695 5696 5697 5697 5698 5699 5699 5700 5701 5701 5702 5703 5704 5705 5706 5706 5707 5709 5710 5710 5711 5711 5712 5712 5713 5714 5715 5716 5717 5718 5719 5721 5722 5723 5725 5726 5728 5730 5731 5733 5735 5737 5739 5740 5741 5742 5743 5745 5747 5748 5749 5750 5751 5752 5754 5755 5756 5758 5760 5761 5760 5762 5764 5766 5768 5769 5770 5771 5772 5774 5774 5774 5775 5776
5693 5693 5692 5692 5691 5691 5691 5691 5691 5691 5691 5691 5692 5692 5693 5694 5694 5694 5695 5696 5696 5697 5698 5699 5700 5700 5701 5703 5703 5704 5705 5706 5707 5708 5709 5709 5710 5711 5711 5712 5713 5714 5715 5716 5717 5718 5720 5721 5723 5725 5726 5728 5730 5731 5733 5734 5735 5736 5738 5739 5740 5742 5744 5745 5746 5747 5748 5750 5752 5753 5754 5755 5756 5758 5759 5760 5762 5764 5765 5766 5768 5769 5770 5772 5772 5772 5773 5774
5692 5691 5690 5690 5690 5689 5689 5689 5689 5688 5689 5689 5689 5690 5691 5691 5691 5691 5692 5693 5693 5694 5695 5696 5697 5698 5699 5700 5701 5702 5703 5704 5705 5706 5707 5708 5708 5709 5710 5711 5712 5712 5713 5714 5715 5717 5718 5720 5722 5723 5725 5726 5727 5729 5730 5731 5732 5733 5735 5736 5738 5740 5741 5742 5743 5744 5746 5748 5750 5751 5752 5752 5753 5755 5756 5758 5760 5762 5764 5765 5766 5767 5769 5770 5770 5771 5771 5772
5689 5689 5688 5688 5688 5687 5687 5687 5687 5687 5687 5687 5687 5688 5688 5688 5688 5689 5690 5690 5691 5692 5693 5693 5694 5695 5696 5698 5699 5700 5700 5702 5703 5704 5705 5706 5707 5708 5708 5709 5710 5711 5712 5713 5714 5716 5717 5719 5720 5721 5721 5723 5724 5726 5727 5728 5729 5730 5732 5734 5736 5738 5739 5739 5740 5742 5744 5746 5747 5748 5749 5750 5751 5753 5754 5756 5759 5761 5763 5764 5765 5766 5767 5767 5768 5769 5770 5770
5687 5687 5686 5686 5686 5685 5685 5685 5685 5685 5685 5685 5685 5685 5685 5685 5685 5686 5687 5688 5689 5690 5690 5691 5692 5693 5694 5695 5697 5697 5698 5699 5700 5702 5703 5704 5705 5705 5706 5708 5709 5709 5710 5711 5713 5714 5715 5716 5717 5718 5719 5721 5722 5724 5725 5725 5727 5728 5730 5733 5734 5736 5737 5737 5739 5741 5742 5744 5746 5747 5747 5748 5750 5751 5753 5755 5758 5760 5761 5762 5763 5764 5764 5766 5767 5767 5768 5769
5684 5684 5684 5684 5683 5683 5683 5683 5683 5682 5682 5683 5683 5683 5682 5683 5683 5684 5685 5686 5686 5687 5688 5689 5690 5690 5692 5693 5694 5695 5696 5697 5698 5700 5701 5702 5702 5703 5705 5706 5707 5708 5709 5710 5711 5712 5712 5713 5714 5716 5718 5719 5721 5722 5723 5724 5725 5727 5729 5731 5732 5733 5735 5735 5737 5739 5741 5743 5744 5745 5746 5747 5749 5750 5752 5754 5756 5757 5758 5759 5760 5761 5762 5764 5765 5766 5767 5768
5681 5681 5681 5681 5681 5681 5681 5680 5680 5680 5680 5681 5681 5680 5680 5680 5681 5682 5683 5683 5684 5685 5686 5686 5687 5688 5689 5691 5692 5693 5694 5695 5697 5697 5699 5700 5701 5702 5703 5704 5705 5707 5708 5708 5709 5710 5710 5711 5713 5714 5716 5717 5719 5720 5721 5723 5724 5726 5727 5729 5730 5732 5733 5734 5736 5738 5739 5741 5743 5744 5745 5746 5748 5749 5751 5753 5754 5755 5756 5757 5758 5759 5760 5762 5763 5764 5765 5766
5678 5678 5678 5678 5678 5678 5678 5678 5678 5678 5678 5678 5678 5678 5677 5678 5678 5679 5680 5681 5682 5682 5683 5684 5685 5686 5687 5689 5690 5691 5692 5694 5695 5695 5696 5698 5699 5700 5701 5702 5704 5705 5706 5707 5707 5708 5709 5710 5711 5713 5714 5716 5717 5718 5720 5721 5723 5724 5726 5728 5729 5730 5731 5733 5735 5737 5738 5740 5741 5742 5743 5744 5746 5748 5749 5751 5752 5754 5755 5756 5757 5758 5759 5760 5761 5762 5763 5765
5675 5675 5675 5675 5675 5675 5675 5675 5675 5675 5676 5676 5675 5675 5675 5675 5676 5677 5678 5679 5680 5680 5681 5682 5683 5684 5686 5688 5688 5689 5690 5692 5693 5694 5694 5696 5697 5698 5699 5701 5702 5703 5704 5705 5705 5706 5707 5709 5710 5711 5713 5714 5716 5717 5718 5720 5722 5723 5725 5726 5727 5728 5730 5732 5734 5735 5737 5738 5739 5740 5741 5743 5744 5746 5747 5748 5750 5751 5752 5753 5755 5756 5757 5758 5760 5761 5762 5763
5672 5672 5672 5672 5672 5672 5672 5673 5673 5673 5673 5673 5673 5673 5673 5673 5674 5675 5675 5677 5678 5678 5679 5680 5681 5682 5684 5686 5686 5687 5688 5689 5691 5692 5693 5694 5695 5696 5697 5699 5700 5701 5702 5703 5704 5705 5706 5707 5709 5710 5711 5713 5715 5716 5717 5719 5720 5722 5723 5724 5724 5725 5728 5730 5732 5734 5735 5736 5737 5738 5739 5741 5742 5744 5745 5746 5747 5748 5750 5751 5752 5754 5755 5756 5758 5759 5760 5761
5668 5668 5668 5668 5668 5669 5669 5669 5669 5670 5670 5671 5670 5670 5670 5671 5672 5673 5673 5674 5675 5676 5677 5678 5679 5680 5681 5683 5684 5685 5685 5687 5688 5690 5691 5692 5692 5694 5695 5697 5698 5699 5700 5701 5702 5703 5705 5706 5707 5708 5710 5712 5713 5714 5715 5717 5718 5720 5721 5722 5722 5724 5726 5728 5730 5732 5733 5734 5736 5737 5738 5740 5741 5742 5743 5744 5745 5746 5747 5748 5750 5752 5754 5755 5756 5757 5758 5759
5664 5665 5665 5664 5665 5665 5666 5666 5665 5666 5668 5668 5668 5668 5668 5668 5669 5670 5671 5672 5673 5673 5674 5675 5676 5678 5679 5681 5682 5682 5683 5685 5686 5687 5689 5690 5691 5692 5693 5694 5695 5696 5697 5699 5700 5701 5702 5703 5705 5706 5708 5710 5711 5712 5713 5714 5716 5718 5719 5720 5721 5722 5724 5725 5727 5729 5730 5732 5733 5735 5736 5738 5739 5741 5741 5742 5742 5743 5745 5746 5748 5750 5751 5753 5754 5755 5756 5757
5660 5661 5661 5661 5661 5661 5662 5662 5661 5663 5664 5664 5665 5665 5665 5666 5666 5667 5669 5670 5671 5671 5672 5673 5674 5675 5677 5678 5680 5681 5682 5683 5684 5685 5686 5688 5689 5690 5691 5692 5693 5694 5695 5697 5698 5699 5700 5701 5703 5704 5706 5708 5709 5710 5711 5712 5714 5716 5717 5718 5719 5720 5721 5723 5725 5726 5728 5729 5731 5732 5734 5736 5738 5739 5739 5739 5740 5741 5743 5745 5746 5747 5749 5751 5752 5753 5754 5755
5656 5656 5657 5657 5657 5658 5659 5657 5656 5659 5661 5661 5661 5662 5662 5663 5663 5665 5667 5669 5669 5669 5669 5670 5671 5673 5674 5676 5677 5678 5679 5680 5681 5682 5684 5685 5687 5688 5689 5689 5690 5692 5693 5695 5696 5697 5698 5700 5701 5703 5705 5706 5707 5708 5709 5710 5712 5714 5715 5716 5717 5718 5719 5720 5722 5723 5725 5727 5728 5730 5732 5733 5735 5737 5737 5737 5738 5740 5741 5743 5744 5745 5747 5748 5750 5751 5752 5753
5651 5651 5652 5653 5653 5654 5654 5652 5652 5655 5657 5657 5658 5658 5659 5659 5660 5663 5666 5667 5666 5666 5667 5668 5669 5671 5672 5673 5674 5675 5676 5678 5679 5680 5681 5683 5684 5685 5687 5688 5689 5690 5691 5693 5695 5697 5697 5698 5699 5701 5703 5704 5705 5706 5707 5708 5709 5711 5713 5714 5715 5715 5716 5718 5719 5721 5722 5724 5726 5727 5729 5731 5733 5735 5735 5735 5736 5738 5739 5741 5742 5743 5744 5746 5748 5749 5750 5751
5646 5646 5647 5648 5649 5649 5648 5647 5648 5651 5653 5654 5653 5655 5655 5655 5658 5662 5663 5663 5663 5664 5665 5665 5667 5668 5669 5671 5672 5673 5674 5676 5677 5678 5679 5680 5682 5683 5684 5686 5687 5688 5689 5690 5692 5694 5695 5696 5697 5698 5700 5701 5702 5704 5705 5706 5707 5709 5711 5712 5712 5713 5713 5715 5716 5718 5720 5721 5723 5725 5727 5728 5730 5732 5733 5734 5735 5736 5737 5739 5740 5741 5742 5743 5745 5746 5747 5748
5641 5642 5642 5643 5644 5644 5643 5643 5644 5646 5649 5650 5649 5650 5650 5652 5657 5660 5660 5660 5660 5661 5662 5663 5664 5666 5667 5668 5670 5671 5672 5673 5674 5675 5676 5677 5679 5681 5682 5683 5684 5685 5686 5687 5689 5691 5692 5693 5694 5696 5698 5699 5701 5702 5704 5704 5705 5706 5708 5709 5709 5710 5711 5712 5714 5716 5718 5719 5721 5723 5724 5725 5727 5728 5730 5732 5733 5734 5735 5737 5738 5740 5741 5742 5742 5743 5744 5745
5637 5637 5638 5638 5639 5639 5639 5639 5640 5642 5644 5645 5645 5644 5647 5651 5655 5657 5657 5656 5656 5658 5659 5661 5662 5663 5664 5666 5667 5668 5669 5671 5672 5673 5674 5675 5676 5678 5680 5682 5682 5683 5684 5685 5686 5688 5690 5691 5692 5694 5696 5698 5699 5700 5701 5702 5702 5703 5704 5706 5707 5708 5709 5710 5712 5714 5715 5717 5718 5720 5721 5722 5723 5725 5727 5729 5730 5732 5732 5734 5736 5737 5738 5739 5739 5740 5741 5742
5632 5632 5633 5634 5634 5635 5635 5634 5635 5637 5639 5641 5640 5640 5645 5650 5652 5652 5653 5653 5653 5655 5656 5658 5659 5660 5661 5663 5664 5665 5666 5668 5669 5670 5671 5672 5674 5676 5678 5679 5680 5681 5682 5683 5684 5686 5687 5689 5690 5691 5693 5695 5696 5697 5698 5699 5699 5700 5701 5703 5705 5706 5707 5708 5710 5711 5712 5713 5715 5716 5717 5718 5720 5722 5723 5725 5727 5729 5730 5731 5733 5734 5734 5735 5736 5737 5738 5739
5628 5627 5628 5629 5630 5630 5630 5630 5630 5631 5634 5635 5635 5637 5643 5646 5647 5648 5649 5649 5650 5652 5653 5654 5656 5657 5658 5660 5661 5662 5663 5665 5666 5667 5668 5669 5671 5673 5675 5676 5677 5678 5679 5680 5682 5683 5685 5687 5688 5689 5690 5692 5693 5694 5695 5696 5697 5698 5699 5701 5703 5704 5704 5705 5707 5708 5709 5710 5712 5713 5714 5716 5717 5718 5720 5722 5723 5725 5727 5728 5728 5729 5730 5730 5732 5733 5735 5736
5623 5622 5622 5623 5625 5625 5624 5624 5625 5626 5628 5630 5631 5634 5639 5641 5643 5645 5645 5645 5646 5648 5649 5651 5652 5653 5655 5657 5658 5659 5660 5662 5663 5664 5665 5666 5668 5670 5672 5673 5674 5675 5676 5677 5679 5680 5682 5684 5685 5686 5688 5689 5690 5692 5692 5693 5694 5695 5697 5698 5700 5701 5702 5703 5704 5705 5706 5708 5709 5710 5711 5712 5714 5715 5716 5718 5720 5721 5723 5725 5725 5725 5725 5726 5728 5730 5731 5732
5618 5617 5616 5616 5618 5619 5618 5618 5619 5621 5622 5624 5628 5631 5634 5637 5639 5640 5640 5641 5642 5643 5645 5647 5649 5650 5652 5654 5655 5656 5657 5659 5660 5661 5663 5664 5665 5668 5670 5671 5671 5672 5674 5674 5675 5677 5679 5680 5682 5683 5685 5687 5688 5689 5690 5690 5692 5693 5694 5695 5697 5698 5700 5701 5702 5703 5705 5706 5707 5708 5709 5709 5711 5713 5714 5715 5717 5718 5720 5721 5722 5721 5721 5723 5725 5726 5727 5729
5612 5611 5609 5610 5611 5612 5612 5613 5614 5615 5617 5620 5624 5627 5629 5632 5634 5635 5635 5636 5637 5639 5641 5643 5645 5647 5648 5650 5652 5653 5654 5656 5657 5658 5660 5661 5663 5665 5667 5668 5669 5670 5671 5672 5673 5674 5675 5677 5679 5680 5682 5683 5685 5686 5687 5688 5690 5691 5692 5693 5694 5696 5697 5698 5699 5701 5702 5703 5704 5706 5707 5707 5709 5711 5712 5713 5715 5716 5717 5718 5718 5719 5719 5720 5722 5723 5724 5725
5605 5604 5603 5603 5604 5605 5606 5607 5608 5610 5613 5616 5619 5622 5624 5627 5629 5629 5630 5631 5632 5634 5637 5639 5641 5643 5645 5647 5649 5650 5651 5653 5654 5655 5657 5659 5661 5662 5663 5665 5666 5667 5669 5670 5671 5672 5673 5674 5677 5678 5678 5680 5682 5683 5684 5686 5687 5688 5690 5691 5692 5693 5695 5696 5697 5698 5699 5701 5702 5704 5705 5706 5707 5709 5710 5711 5712 5713 5714 5714 5715 5716 5716 5717 5718 5720 5721 5722
5599 5598 5597 5597 5597 5598 5600 5601 5603 5605 5607 5610 5614 5616 5618 5620 5622 5624 5625 5626 5629 5631 5633 5635 5637 5640 5641 5643 5645 5646 5648 5650 5651 5653 5654 5656 5658 5659 5660 5662 5664 5665 5666 5668 5669 5670 5671 5672 5674 5675 5675 5677 5678 5680 5681 5683 5684 5685 5687 5688 5689 5690 5692 5693 5694 5696 5697 5699 5700 5702 5703 5703 5705 5706 5707 5708 5709 5710 5711 5712 5713 5714 5714 5715 5716 5718 5719 5719
5593 5592 5592 5592 5592 5593 5594 5596 5598 5600 5602 5605 5607 5609 5611 5614 5617 5620 5621 5623 5625 5627 5629 5631 5633 5636 5637 5639 5641 5643 5645 5647 5648 5650 5652 5653 5655 5656 5658 5660 5662 5662 5663 5665 5666 5667 5669 5669 5670 5671 5672 5673 5675 5677 5678 5680 5681 5682 5683 5685 5686 5688 5689 5690 5692 5694 5695 5696 5698 5699 5700 5701 5702 5703 5704 5705 5706 5708 5709 5710 5711 5712 5712 5713 5714 5715 5716 5716
5589 5589 5589 5588 5588 5589 5589 5591 5593 5596 5598 5600 5603 5605 5608 5610 5613 5616 5618 5619 5621 5623 5626 5628 5630 5632 5633 5635 5638 5639 5641 5643 5645 5648 5650 5651 5652 5654 5655 5657 5659 5659 5660 5662 5663 5664 5666 5666 5667 5668 5669 5670 5672 5673 5674 5676 5678 5679 5680 5682 5683 5685 5687 5688 5690 5691 5692 5693 5695 5697 5698 5698 5699 5700 5701 5703 5704 5705 5706 5707 5708 5709 5710 5710 5711 5712 5713 5713
5587 5587 5586 5585 5586 5585 5585 5587 5590 5592 5594 5597 5599 5602 5604 5606 5610 5613 5615 5616 5618 5620 5623 5625 5627 5628 5629 5631 5634 5636 5638 5640 5642 5644 5646 5648 5649 5650 5652 5654 5655 5656 5657 5658 5659 5661 5662 5662 5663 5665 5666 5667 5669 5671 5673 5674 5676 5677 5679 5680 5681 5682 5684 5685 5687 5688 5689 5691 5692 5694 5695 5696 5697 5698 5699 5700 5701 5702 5703 5704 5704 5705 5706 5707 5708 5709 5710 5710
5586 5585 5583 5582 5582 5582 5582 5584 5587 5589 5592 5594 5596 5598 5600 5603 5606 5609 5611 5613 5614 5617 5620 5622 5623 5625 5626 5628 5630 5632 5634 5636 5638 5640 5642 5644 5645 5647 5649 5650 5651 5652 5654 5655 5655 5657 5658 5658 5660 5661 5663 5665 5667 5669 5671 5672 5673 5675 5676 5678 5679 5680 5681 5683 5684 5685 5687 5688 5689 5690 5691 5693 5694 5695 5696 5697 5698 5699 5700 5701 5701 5702 5703 5704 5705 5706 5706 5707
5585 5583 5581 5579 5579 5579 5580 5582 5584 5587 5589 5591 5593 5595 5597 5600 5603 5605 5607 5610 5611 5613 5616 5618 5620 5621 5623 5624 5627 5629 5631 5632 5634 5636 5638 5640 5641 5643 5645 5647 5648 5649 5651 5652 5652 5652 5653 5654 5656 5657 5659 5662 5664 5665 5667 5668 5669 5671 5673 5674 5676 5677 5678 5679 5680 5682 5683 5685 5686 5686 5688 5689 5691 5692 5693 5694 5695 5696 5697 5698 5698 5699 5700 5701 5701 5702 5703 5703
5584 5581 5578 5577 5577 5578 5578 5580 5582 5585 5587 5589 5590 5592 5594 5597 5599 5602 5604 5607 5608 5610 5612 5614 5616 5618 5620 5621 5623 5625 5627 5629 5631 5632 5634 5636 5637 5639 5642 5643 5645 5646 5647 5648 5648 5649 5649 5651 5653 5654 5656 5658 5659 5660 5662 5663 5665 5667 5668 5670 5672 5673 5675 5676 5677 5678 5679 5681 5682 5683 5684 5685 5687 5689 5690 5691 5692 5692 5693 5694 5695 5696 5696 5697 5698 5698 5699 5699
5583 5580 5577 5575 5575 5576 5576 5577 5580 5583 5585 5586 5588 5589 5591 5594 5596 5599 5602 5604 5606 5607 5609 5611 5613 5615 5616 5618 5620 5622 5624 5626 5628 5629 5631 5633 5634 5636 5638 5640 5641 5642 5644 5645 5645 5646 5647 5648 5649 5651 5653 5653 5654 5655 5657 5658 5660 5661 5663 5665 5667 5669 5670 5672 5673 5674 5675 5676 5678 5679 5680 5681 5683 5684 5686 5687 5688 5688 5689 5690 5691 5691 5692 5693 5694 5694 5695 5696
5582 5579 5576 5574 5574 5575 5575 5576 5578 5581 5583 5584 5586 5587 5589 5591 5593 5596 5598 5601 5603 5604 5606 5608 5610 5612 5613 5615 5617 5619 5621 5623 5625 5626 5628 5630 5631 5632 5634 5636 5638 5639 5641 5642 5642 5643 5644 5644 5646 5648 5649 5650 5651 5653 5653 5653 5654 5656 5657 5660 5662 5664 5665 5667 5668 5669 5670 5672 5673 5674 5676 5677 5678 5680 5681 5682 5683 5684 5685 5686 5687 5687 5688 5688 5689 5690 5691 5692
5582 5579 5576 5574 5573 5573 5574 5575 5577 5579 5581 5583 5585 5586 5587 5589 5591 5593 5595 5597 5599 5602 5604 5605 5607 5609 5610 5612 5613 5615 5617 5619 5622 5623 5625 5626 5627 5629 5630 5632 5633 5635 5636 5637 5638 5639 5640 5641 5642 5644 5645 5646 5648 5649 5649 5650 5651 5652 5654 5656 5657 5659 5661 5662 5664 5665 5666 5667 5668 5670 5671 5672 5674 5675 5677 5678 5679 5680 5681 5681 5682 5683 5683 5684 5685 5686 5686 5687
5582 5580 5577 5575 5573 5573 5573 5574 5576 5578 5580 5582 5584 5585 5587 5588 5590 5591 5593 5594 5597 5599 5601 5602 5604 5606 5607 5609 5610 5612 5614 5616 5618 5620 5621 5622 5624 5625 5626 5627 5629 5630 5631 5633 5634 5635 5635 5636 5638 5640 5641 5642 5643 5644 5645 5646 5647 5649 5651 5653 5654 5655 5657 5658 5659 5660 5662 5663 5664 5665 5666 5667 5669 5670 5672 5673 5674 5675 5676 5677 5677 5678 5679 5680 5680 5681 5681 5682